Regional Weather Roundup
Issued by NWS

Home | Current Version | Previous Version | Text Only | Print | Product List | Glossary Off
Versions: 1 2 3 4 5 6 7 8 9 10 11 12 13 14 15 16 17 18 19 20 21 22 23 24 25 26 27 28 29 30 31 32 33 34 35 36 37 38 39 40 41 42 43 44 45 46 47 48 49 50

184
ASUS43 KOAX 281710
RWRNE

WEATHER ROUNDUP FOR NEBRASKA
NATIONAL WEATHER SERVICE OMAHA NE
1200 PM CDT SUN AUG 28 2016

NOTES: SATELLITE DATA IS BEING USED TO AUGMENT CLOUD COVER ABOVE
       12000 FEET.
       "FAIR" INDICATES FEW OR NO CLOUDS BELOW 12,000 FEET WITH NO
       SIGNIFICANT WEATHER AND/OR OBSTRUCTIONS TO VISIBILITY.

  * THESE STATIONS DO NOT REPORT WEATHER SUCH AS RAIN...SNOW OR FOG.

NEZ001>004-019>022-054>056-281800-
NEBRASKA PANHANDLE

CITY           SKY/WX    TMP DP  RH WIND       PRES   REMARKS
SCOTTSBLUFF    SUNNY     80  46  30 VRB5      30.10R
ALLIANCE       SUNNY     81  56  42 SE9       30.08S
CHADRON        SUNNY     85  42  22 W7        30.03R
KIMBALL        SUNNY     80  45  28 NE5       30.16S
SIDNEY         SUNNY     79  55  43 CALM      30.14S
$$

NEZ057>060-069>072-079>082-281800-
SOUTHWEST NEBRASKA

CITY           SKY/WX    TMP DP  RH WIND       PRES   REMARKS
NORTH PLATTE   MOSUNNY   84  58  40 SW13G20   30.09S
IMPERIAL       SUNNY     80  58  46 S8        30.11R
LEXINGTON      MOSUNNY   79  63  57 S7        30.11S
MCCOOK         CLOUDY    77  58  51 S5        30.10F
OGALLALA       MOSUNNY   81  59  46 CALM      30.09R
$$

NEZ005>010-023>029-035>040-094-281800-
NORTH CENTRAL NEBRASKA

CITY           SKY/WX    TMP DP  RH WIND       PRES   REMARKS
AINSWORTH      SUNNY     85  64  50 S14       30.03F
BROKEN BOW     MOSUNNY   82  65  56 S13       30.08F
O`NEILL        MOSUNNY   86  65  48 S15G22    30.05S
ORD            SUNNY     82  65  56 S10       30.06F
THEDFORD       MOSUNNY   83  65  55 S14G21    30.08S
$$

NEZ041-046>049-061>064-073>077-083>087-281800-
SOUTH CENTRAL NEBRASKA

CITY           SKY/WX    TMP DP  RH WIND       PRES   REMARKS
GRAND ISLAND   MOSUNNY   83  65  54 S8        30.10S
AURORA         MOSUNNY   83  68  60 S8        30.10S
HASTINGS       SUNNY     86  63  45 S10       30.11S
HEBRON         MOSUNNY   84  71  65 S8        30.10R
HOLDREGE       CLOUDY    77  65  65 SW6       30.11S
KEARNEY *      MOSUNNY   77  66  69 S6        30.10S
YORK           MOSUNNY   84  70  61 S10       30.11R
$$

NEZ011>018-030>034-042>045-281800-
NORTHEAST NEBRASKA

CITY           SKY/WX    TMP DP  RH WIND       PRES   REMARKS
NORFOLK        MOSUNNY   83  69  62 S12       30.08R
ALBION         MOSUNNY   80  68  65 S10       30.09S
BLAIR          MOSUNNY   83  73  71 S9        30.11S
FREMONT        MOSUNNY   83  71  68 S6        30.11S
TEKAMAH        SUNNY     84  73  69 S8        30.09S HX  90
WAYNE          CLOUDY    82  74  78 S12       30.09S
$$

NEZ050>053-065>068-078-088>093-281800-
SOUTHEAST NEBRASKA

CITY           SKY/WX    TMP DP  RH WIND       PRES   REMARKS
LINCOLN        MOSUNNY   86  72  62 S8        30.10S HX  92
OMAHA EPPLEY   PTSUNNY   84  73  69 S9        30.10F HX  90
BEATRICE       SUNNY     86  73  64 S7        30.10F HX  92
FALLS CITY     SUNNY     87  73  62 S6        30.11S HX  94
NEBRASKA CITY  MOSUNNY   83  71  67 SE5       30.12S
PLATTSMOUTH    MOSUNNY   82  73  73 SE5       30.12S
$$

NEZ044-045-051>053-067-281800-
OMAHA AREA

CITY           SKY/WX    TMP DP  RH WIND       PRES   REMARKS
OMAHA EPPLEY   PTSUNNY   84  73  69 S9        30.10F HX  90
BLAIR          MOSUNNY   83  73  71 S9        30.11S
FREMONT        MOSUNNY   83  71  68 S6        30.11S
MILLARD        MOSUNNY   83  74  74 SE7       30.10S HX  91
OFFUTT AFB     MOSUNNY   84  74  72 SE8       30.10F HX  90
PLATTSMOUTH    MOSUNNY   82  73  73 SE5       30.12S
WAHOO          FAIR      83  73  71 SE8       30.10S
$$




USA.gov is the U.S. government's official web portal to all federal, state and local government web resources and services.